Tracking 30102 objects as of 12-Dec-2024
HD Live streaming from Space Station
objects crossing your sky now

STARLINK-32326

Track STARLINK-32326 now!
10-day predictions
STARLINK-32326 is classified as:


NORAD ID: 61674
Int'l Code: 2024-193P
Perigee: 453.5 km
Apogee: 455.2 km
Inclination: 53.2 °
Period: 93.5 minutes
Semi major axis: 6825 km
RCS: Unknown
Launch date: October 26, 2024
Source: United States (US)
Launch site: AIR FORCE EASTERN TEST RANGE (AFETR)
Your satellite tracking list
Your tracking list is empty




NASA's NSSDC Master Catalog

Two Line Element Set (TLE):
1 61674U 24193P   24346.47159474  .00003793  00000-0  10474-3 0  9994
2 61674  53.1614  39.2400 0001189 105.2800 254.8336 15.39628842  7094
Source of the keplerian elements: AFSPC